Theta_e
316 316 316 316 316 316 316 316 315 315 315 315 315 316 316 316 317 315 309 316 317 322 320 318 319 315 312 310 310 310 302 301 305 306 308 310 307 310 312 311 312 320 330 342 348
314 314 314 314 314 314 313 313 314 314 314 315 315 315 315 315 312 309 319 319 319 320 315 313 311 312 308 307 307 305 301 302 309 310 307 309 308 309 308 309 310 313 335 346 350
313 313 313 313 313 313 313 313 313 313 313 314 315 315 314 314 306 306 320 321 326 325 317 316 315 313 308 307 306 305 301 306 306 307 308 308 307 309 307 307 311 311 312 332 346
312 312 313 313 313 313 313 313 313 313 313 312 313 314 315 311 296 314 323 319 326 322 316 314 312 309 308 304 306 301 305 305 307 306 306 305 308 306 307 309 311 313 312 313 326
312 312 312 312 312 313 313 313 313 313 312 312 312 313 310 303 304 312 314 318 323 319 315 311 309 310 307 308 306 302 304 305 306 306 306 307 305 305 306 310 312 312 313 313 315
312 312 312 312 311 312 313 313 313 313 312 312 312 312 306 297 310 312 311 313 319 317 315 314 309 312 309 309 306 307 305 304 305 305 306 303 304 305 306 310 310 310 311 313 315
312 312 311 311 311 311 312 312 312 312 312 313 313 310 304 302 311 312 311 312 316 315 312 316 314 310 309 306 310 307 301 304 304 305 304 305 301 302 307 309 308 309 311 312 315
311 311 311 310 311 311 312 312 311 311 314 314 314 310 301 310 312 310 311 309 313 315 313 315 316 312 310 312 306 303 303 299 306 304 304 302 298 306 309 307 307 308 310 311 314
311 311 311 310 311 311 310 310 311 312 312 312 310 307 302 310 307 314 316 310 309 310 313 313 313 309 309 304 302 302 297 299 302 309 305 302 301 305 308 307 306 308 310 311 312
311 311 311 311 310 310 310 310 311 312 312 313 310 300 306 305 311 314 317 314 310 306 305 307 308 303 303 301 293 298 298 300 300 305 304 303 301 306 305 306 306 307 310 311 312
310 310 310 310 310 310 309 309 304 305 307 302 301 302 302 306 309 307 315 312 310 307 299 302 297 296 300 302 303 302 301 299 303 305 302 302 303 305 308 308 306 307 309 311 312
309 310 310 310 309 309 309 302 301 302 296 302 302 302 305 307 300 303 314 304 304 299 303 300 294 299 302 302 302 301 299 299 302 302 302 302 302 305 307 307 309 308 309 310 312
309 309 310 310 309 309 305 302 307 307 298 299 302 303 306 307 302 304 307 306 302 301 301 297 299 302 299 298 298 300 299 298 298 302 303 301 299 302 306 308 309 311 311 312 313
309 309 309 308 308 307 305 307 309 309 295 296 300 306 308 308 302 310 311 306 303 299 302 300 304 300 298 297 299 294 300 299 298 297 293 301 291 301 304 305 308 310 311 312 313
309 309 309 307 308 306 305 308 309 308 284 295 303 311 308 303 303 305 313 308 301 301 301 299 300 299 297 299 301 297 301 299 299 297 296 296 293 298 304 302 305 309 311 312 314
308 308 307 310 312 308 310 310 308 293 284 293 301 300 300 302 301 304 306 310 307 301 302 301 305 302 301 301 302 303 300 299 299 296 289 295 295 296 300 303 306 309 311 312 314
308 308 307 311 307 311 310 308 293 286 295 292 294 297 297 296 298 300 298 298 297 292 293 296 299 303 303 298 302 299 294 289 286 289 288 297 294 297 303 304 307 308 311 313 315
306 305 306 311 313 311 308 298 285 290 291 297 297 296 293 295 297 297 296 295 298 298 293 288 289 298 302 300 296 295 296 291 284 286 290 297 292 297 305 308 309 310 312 315 320
304 307 311 312 312 312 303 289 289 291 294 293 294 291 291 294 295 295 295 296 299 298 292 291 292 300 303 303 302 296 294 301 294 295 292 295 298 303 305 306 307 309 314 320 323
303 303 309 312 312 308 298 290 292 296 296 294 287 290 288 289 290 292 292 297 296 299 301 296 290 298 301 303 302 300 302 293 295 287 285 291 294 295 301 303 308 310 318 320 324
303 297 307 311 311 302 290 290 292 296 295 291 289 288 289 288 291 289 291 297 299 297 301 297 294 295 300 298 296 296 296 297 297 295 289 288 293 304 304 308 310 315 319 321 322
300 291 306 307 293 295 290 290 291 290 293 291 292 291 290 291 289 289 290 294 301 299 295 298 292 289 294 301 303 302 299 299 293 292 294 294 297 311 311 312 314 314 316 320 322
296 296 308 303 288 288 291 289 290 289 289 290 289 291 294 290 287 291 291 298 298 298 294 295 288 286 289 295 299 297 299 301 299 298 293 291 294 310 309 309 312 312 314 318 322
296 290 296 299 296 290 287 287 286 291 290 290 290 293 288 288 292 290 291 294 297 297 299 295 289 287 289 293 298 296 297 301 298 294 295 295 297 305 305 307 310 311 314 317 318
297 292 293 288 289 290 289 287 286 286 290 292 289 289 287 285 288 289 291 294 296 297 294 288 285 290 290 293 298 298 299 299 295 299 293 297 297 305 307 307 309 311 312 313 315
292 290 292 290 292 288 289 288 286 287 287 287 287 289 290 286 287 286 292 292 290 293 292 292 285 288 289 298 299 297 298 299 299 298 298 299 298 311 312 310 308 309 310 312 312
297 296 291 288 290 288 288 288 287 288 290 291 289 288 288 291 293 294 295 296 294 291 290 289 289 292 289 296 297 291 297 299 298 299 299 295 301 312 307 307 308 309 311 311 310
Wind_Speed
16 16 15 15 15 15 15 16 17 17 17 15 15 15 16 19 19 21 23 12 5 11 9 7 9 10 12 12 10 8 12 18 23 19 12 8 12 6 2 6 7 1 2 6 6
17 17 16 16 16 15 15 15 16 17 17 17 16 16 16 17 22 26 18 6 12 11 15 19 15 13 11 15 9 15 16 24 18 13 8 13 10 10 8 10 10 8 6 5 6
17 17 18 18 17 17 16 16 16 15 15 16 18 16 15 19 18 1 8 10 16 18 18 17 19 13 17 13 17 15 23 16 12 11 12 13 11 8 9 12 11 10 2 2 5
20 20 20 20 20 20 19 18 18 17 17 15 15 14 17 13 8 7 8 8 7 15 14 15 18 21 17 20 19 17 19 21 16 13 15 17 14 17 15 15 1 7 2 3 4
21 22 22 22 22 22 21 21 20 19 17 15 14 13 11 9 13 6 4 4 10 12 15 18 21 21 22 15 20 24 21 18 20 18 16 16 18 16 17 14 11 13 11 12 10
20 21 22 22 23 23 22 22 22 21 19 16 12 10 11 14 6 3 2 7 10 12 11 16 13 20 13 22 20 7 22 25 19 19 20 22 22 19 18 18 19 19 20 16 12
19 20 21 21 22 22 22 22 22 24 24 18 11 8 12 22 5 3 4 1 7 12 12 12 15 13 10 13 20 18 15 14 20 22 19 13 25 28 20 19 16 14 18 17 15
19 20 22 23 23 24 25 24 24 25 15 8 8 8 11 1 6 11 13 13 8 6 7 5 10 14 18 12 7 18 21 22 21 16 11 12 30 20 23 26 22 21 18 18 19
20 21 22 25 25 25 26 26 27 13 4 5 8 9 7 7 7 4 10 7 11 13 7 7 11 17 12 16 17 19 20 25 23 18 19 19 20 14 7 16 18 20 22 19 19
22 22 22 23 26 24 24 28 10 8 7 6 3 6 8 2 6 2 5 7 3 13 10 12 10 14 19 18 23 18 21 21 14 18 19 22 23 14 10 10 15 14 17 19 19
25 24 24 24 25 23 20 7 7 9 11 11 5 13 14 9 10 12 9 11 7 14 15 18 14 25 25 25 22 22 17 17 19 19 16 20 21 21 21 20 16 15 15 17 19
28 28 27 26 24 21 9 8 6 7 15 17 20 18 18 16 8 10 11 12 13 15 16 13 26 23 20 22 21 23 20 18 12 7 14 19 20 18 19 20 20 21 21 21 18
26 26 29 30 23 8 6 4 5 7 10 3 6 5 1 9 7 7 17 11 14 16 16 21 11 17 24 20 21 24 25 21 18 14 16 18 21 20 20 20 19 19 22 21 22
26 27 26 29 11 7 3 1 8 6 9 7 8 7 8 4 7 8 14 8 10 15 18 18 22 22 18 21 21 24 23 21 18 15 18 17 19 18 23 25 23 22 21 20 21
28 28 28 11 8 4 6 5 9 5 9 5 7 6 3 8 10 11 13 12 16 16 10 20 14 19 23 21 20 18 17 16 21 19 18 21 15 18 19 17 20 20 22 20 20
29 28 25 5 3 3 7 6 6 9 9 3 3 2 9 11 16 18 14 17 15 16 16 22 17 15 20 22 20 15 12 15 16 16 18 23 19 12 17 19 16 18 17 21 21
30 30 15 4 7 7 7 6 10 9 6 3 5 8 19 21 16 14 17 20 16 14 18 11 27 24 15 15 18 16 12 8 10 15 19 14 16 20 4 4 13 17 12 9 14
32 29 3 3 6 6 6 9 11 10 12 11 14 19 22 18 9 7 16 16 18 23 16 8 9 25 21 24 20 22 20 9 13 15 16 16 13 14 11 19 11 11 8 7 11
31 6 4 5 5 5 8 10 14 16 12 14 16 18 13 7 10 13 18 16 18 15 17 10 16 9 17 22 22 21 26 24 15 11 9 16 18 17 6 10 12 12 8 2 5
11 6 1 7 7 7 9 15 20 16 14 16 19 14 21 14 15 14 11 11 4 1 11 9 21 20 13 14 24 27 20 19 12 15 15 14 17 10 7 14 10 12 9 8 7
6 7 6 10 4 7 8 15 19 18 20 18 21 25 26 23 20 17 8 15 8 1 6 9 7 7 13 22 20 21 16 20 16 14 10 12 12 4 4 3 6 8 7 9 12
6 7 6 10 6 4 9 16 19 25 22 25 25 25 22 14 7 8 14 16 16 16 11 7 4 6 19 14 19 24 20 25 12 15 15 14 0 7 4 3 3 8 7 10 11
9 5 2 10 7 10 14 16 19 19 21 17 16 20 14 9 8 8 5 10 11 7 7 7 1 4 5 7 13 25 22 22 18 12 15 15 7 7 5 5 7 10 11 12 15
6 6 4 1 6 13 18 15 19 14 13 7 17 16 1 7 10 9 19 7 12 14 12 10 4 12 10 9 17 25 27 25 21 12 14 14 5 9 6 9 11 11 13 16 15
3 5 4 7 10 13 15 15 17 15 7 15 6 15 14 7 18 16 15 20 10 12 3 1 7 15 17 27 20 26 28 26 23 22 14 11 16 10 9 9 11 12 11 15 19
7 6 6 14 10 10 11 10 15 19 16 15 14 23 19 13 16 23 22 16 11 7 3 2 7 5 5 6 17 21 22 25 25 20 19 11 7 15 12 12 13 13 15 19 19
5 6 5 10 10 10 9 16 21 20 10 17 18 20 18 18 15 20 22 22 20 18 17 6 5 5 2 6 8 8 20 21 20 20 17 13 13 15 13 14 16 14 15 18 18
Wind_Direction
349 345 343 341 338 334 329 321 316 314 310 308 308 311 313 309 298 275 265 261 222 269 237 230 194 190 202 215 219 230 240 238 231 227 231 188 224 176 72 236 214 102 324 5 138
351 347 343 340 336 333 327 321 317 315 313 311 308 309 312 311 296 280 250 253 252 259 228 208 193 186 199 210 208 214 232 237 248 252 246 185 221 174 198 197 199 192 131 96 156
349 344 341 338 334 331 327 322 315 310 308 309 311 307 312 304 293 199 102 219 253 211 234 228 233 214 227 222 209 219 238 241 245 241 261 233 207 198 225 209 219 195 107 98 166
348 345 341 337 333 331 326 322 318 313 311 309 309 305 315 299 291 88 29 340 154 182 211 207 215 215 224 216 223 249 233 247 243 228 240 238 242 247 237 243 236 181 238 297 253
346 343 338 335 333 329 324 321 317 313 309 304 300 303 293 247 258 122 314 193 171 181 199 211 211 208 223 233 228 229 246 225 247 244 235 255 248 246 246 238 245 257 260 262 250
343 338 334 332 329 325 320 317 314 312 307 299 286 284 255 259 28 300 292 231 207 203 205 213 223 223 251 241 233 221 239 249 238 239 241 249 250 238 235 248 252 253 257 249 241
338 332 329 326 321 317 312 309 310 308 306 289 254 232 252 246 318 283 228 223 243 227 225 223 235 225 228 253 241 258 247 238 244 247 240 252 255 237 241 240 235 237 242 238 229
335 327 324 325 321 318 314 311 307 306 295 285 213 199 254 159 265 267 251 240 216 228 263 297 244 250 238 260 252 231 236 246 227 217 225 216 255 235 225 220 231 230 236 241 232
333 326 324 323 321 318 314 310 307 289 273 174 166 217 255 119 235 223 212 222 219 211 229 274 219 224 205 232 234 217 239 229 242 220 217 207 257 227 206 212 226 226 224 232 229
332 327 323 318 319 318 316 301 294 255 189 175 332 219 221 158 145 140 162 198 172 187 208 215 216 216 221 210 226 223 220 247 232 229 212 226 243 237 172 221 219 225 223 222 228
332 328 325 322 323 321 320 279 221 189 207 242 270 260 295 282 271 238 172 190 174 189 205 197 214 222 225 224 244 262 277 223 235 231 228 234 250 236 237 236 229 219 226 231 228
332 329 327 324 322 321 283 335 349 341 293 251 258 267 265 272 271 227 178 215 201 226 207 197 231 236 233 239 234 243 241 237 243 210 251 248 256 241 238 240 230 230 233 237 230
331 329 328 325 321 276 328 340 323 304 264 276 220 229 234 181 224 230 193 214 229 239 226 237 239 221 234 228 226 229 237 241 241 225 244 256 257 248 240 240 240 228 234 231 233
330 330 332 326 284 345 27 80 332 316 278 149 190 163 166 237 226 208 203 230 212 249 249 245 249 250 223 228 219 236 229 245 254 238 245 226 259 242 227 231 231 225 225 228 225
331 333 334 335 319 338 343 281 318 246 280 100 129 111 146 266 328 190 198 205 247 239 224 237 223 228 223 218 221 240 240 216 231 231 243 240 250 249 240 220 233 229 222 226 226
330 330 329 205 246 355 329 285 253 233 244 150 132 239 288 285 288 274 208 233 261 261 246 254 261 234 236 223 224 219 230 212 225 233 232 230 234 246 228 222 229 237 223 220 221
331 327 314 311 341 325 303 252 265 249 52 59 327 313 309 305 307 278 265 224 234 241 245 270 239 238 233 216 195 208 204 205 209 214 234 212 223 238 294 255 226 230 218 227 238
328 315 149 315 315 294 259 253 262 298 305 328 309 310 297 298 290 303 292 269 240 243 260 254 247 208 214 225 201 198 210 214 198 212 231 207 232 227 234 235 232 204 254 264 222
317 329 250 32 345 293 276 265 281 320 330 343 312 290 295 273 274 295 285 272 273 263 234 238 241 210 200 206 212 205 209 227 277 290 270 188 224 267 205 232 225 238 233 153 162
320 313 320 338 325 273 267 277 295 310 326 316 286 287 287 293 303 300 310 298 316 28 320 272 264 260 220 221 224 229 210 217 215 243 214 238 235 230 208 214 212 204 148 147 161
290 303 65 337 272 241 290 318 319 319 316 299 296 291 287 287 292 277 259 280 358 1 316 320 251 226 215 202 207 207 226 213 209 245 237 235 221 97 302 142 197 167 127 143 142
303 314 28 330 273 348 312 338 311 306 301 286 273 266 278 295 255 295 274 258 323 342 328 358 275 250 239 218 209 216 207 209 215 206 244 279 121 56 76 137 166 167 143 121 118
317 289 351 308 345 336 331 323 308 322 319 312 294 296 304 319 308 275 330 305 312 350 8 357 259 281 180 258 247 213 206 219 222 240 219 230 234 58 105 155 156 144 141 133 133
298 310 352 286 326 338 330 329 322 325 321 326 298 298 308 311 303 277 285 282 331 312 356 345 245 231 273 224 185 202 197 215 206 221 225 220 196 159 160 156 139 139 141 126 127
6 16 19 312 337 323 319 316 320 341 319 311 273 313 336 309 310 283 319 310 332 312 105 270 272 237 240 262 182 192 195 201 209 218 231 228 223 135 156 157 143 137 129 128 127
331 343 335 292 294 308 301 324 328 326 324 307 332 312 311 294 284 291 298 303 291 290 318 339 280 249 237 233 176 196 202 202 203 216 220 215 244 77 126 130 133 138 144 137 125
3 315 284 287 305 314 333 322 319 325 305 307 308 305 298 299 306 293 286 277 268 270 280 264 272 307 60 175 149 209 209 213 211 216 233 212 238 132 139 144 143 131 137 125 118